When you browse on this site, cookies collect data to enhance your experience and personalize the content and advertising you see.
Visit our Privacy Policy to learn more. By continuing to use the site, you agree to this use of cookies and data.
  • en Belgique
  • Liste des pays
  • À 7 jours
  • Température de l'eau
  • Carte météo
  • Widgets météo
  • user-avatar
    Se connecter

    Météo par heure à Samroung

    Ce jour, 5 Juin, Vendredi

    Heure Température Précipitation Vent Pression Humidité
    00:00 +28°C° 0 mm 1 m/s 755 mmHg 88%
    01:00 +27°C° 0 mm 1 m/s 755 mmHg 86%
    02:00 +27°C° 0 mm 1 m/s 755 mmHg 86%
    03:00 +27°C° 0 mm 1 m/s 754 mmHg 87%
    04:00 +27°C° 0 mm 1 m/s 754 mmHg 88%
    05:00 +28°C° 0 mm 1 m/s 754 mmHg 87%
    06:00 +28°C° 0 mm 1 m/s 755 mmHg 87%
    07:00 +29°C° 0 mm 1 m/s 755 mmHg 85%
    08:00 +31°C° 0 mm 1 m/s 755 mmHg 78%
    09:00 +32°C° 0 mm 1 m/s 755 mmHg 70%
    10:00 +34°C° 0 mm 1 m/s 755 mmHg 62%
    11:00 +34°C° 0.3 mm 1 m/s 755 mmHg 64%
    12:00 +35°C° 0.3 mm 2 m/s 755 mmHg 67%
    13:00 +35°C° 0.3 mm 2 m/s 754 mmHg 70%
    14:00 +34°C° 0.5 mm 2 m/s 754 mmHg 71%
    15:00 +34°C° 0.5 mm 2 m/s 753 mmHg 72%
    16:00 +34°C° 0.5 mm 2 m/s 753 mmHg 73%
    17:00 +32°C° 0.2 mm 2 m/s 753 mmHg 78%
    18:00 +30°C° 0.2 mm 2 m/s 753 mmHg 82%
    19:00 +29°C° 0.2 mm 1 m/s 754 mmHg 86%
    20:00 +29°C° 0.1 mm 1 m/s 754 mmHg 87%
    21:00 +29°C° 0.1 mm 1 m/s 755 mmHg 88%
    22:00 +28°C° 0.1 mm 1 m/s 755 mmHg 88%
    23:00 +28°C° 0.1 mm 1 m/s 755 mmHg 88%

    Demain, 6 Juin, Samedi

    Heure Température Précipitation Vent Pression Humidité
    00:00 +28°C° 0.1 mm 1 m/s 754 mmHg 89%
    01:00 +28°C° 0.1 mm 1 m/s 754 mmHg 89%
    02:00 +28°C° 0 mm 1 m/s 754 mmHg 90%
    03:00 +28°C° 0 mm 1 m/s 753 mmHg 90%
    04:00 +28°C° 0 mm 1 m/s 753 mmHg 90%
    05:00 +28°C° 0 mm 1 m/s 753 mmHg 89%
    06:00 +29°C° 0 mm 1 m/s 754 mmHg 87%
    07:00 +29°C° 0 mm 1 m/s 754 mmHg 86%
    08:00 +31°C° 0.1 mm 1 m/s 754 mmHg 79%
    09:00 +32°C° 0.1 mm 2 m/s 755 mmHg 72%
    10:00 +35°C° 0.1 mm 2 m/s 755 mmHg 65%
    11:00 +34°C° 1 mm 2 m/s 755 mmHg 68%
    12:00 +34°C° 1 mm 2 m/s 754 mmHg 71%
    13:00 +34°C° 1 mm 3 m/s 754 mmHg 74%
    14:00 +33°C° 1.7 mm 3 m/s 754 mmHg 76%
    15:00 +33°C° 1.7 mm 3 m/s 753 mmHg 78%
    16:00 +31°C° 1.7 mm 3 m/s 752 mmHg 80%
    17:00 +30°C° 0.2 mm 3 m/s 753 mmHg 84%
    18:00 +29°C° 0.2 mm 3 m/s 753 mmHg 87%
    19:00 +28°C° 0.2 mm 3 m/s 754 mmHg 90%
    20:00 +28°C° 0 mm 3 m/s 754 mmHg 91%
    21:00 +28°C° 0 mm 2 m/s 755 mmHg 91%
    22:00 +28°C° 0 mm 2 m/s 755 mmHg 92%
    23:00 +28°C° 0 mm 2 m/s 755 mmHg 92%

    Après-demain, 7 Juin, Dimanche

    Heure Température Précipitation Vent Pression Humidité
    00:00 +28°C° 0 mm 2 m/s 755 mmHg 92%
    01:00 +28°C° 0 mm 2 m/s 754 mmHg 93%
    02:00 +28°C° 0.1 mm 2 m/s 754 mmHg 93%
    03:00 +28°C° 0.1 mm 2 m/s 754 mmHg 93%
    04:00 +28°C° 0.1 mm 2 m/s 753 mmHg 93%
    05:00 +28°C° 0.2 mm 2 m/s 754 mmHg 92%
    06:00 +28°C° 0.2 mm 2 m/s 754 mmHg 92%
    07:00 +28°C° 0.2 mm 1 m/s 754 mmHg 91%
    08:00 +30°C° 0.8 mm 2 m/s 754 mmHg 85%
    09:00 +31°C° 0.8 mm 2 m/s 755 mmHg 80%
    10:00 +32°C° 0.8 mm 2 m/s 755 mmHg 74%
    11:00 +34°C° 0.1 mm 2 m/s 754 mmHg 71%
    12:00 +34°C° 0.1 mm 3 m/s 754 mmHg 67%
    13:00 +35°C° 0.1 mm 3 m/s 753 mmHg 63%
    14:00 +34°C° 0 mm 4 m/s 753 mmHg 65%
    15:00 +33°C° 0 mm 4 m/s 752 mmHg 67%
    16:00 +33°C° 0 mm 4 m/s 752 mmHg 69%
    17:00 +32°C° 0 mm 4 m/s 752 mmHg 75%
    18:00 +30°C° 0 mm 3 m/s 753 mmHg 81%
    19:00 +29°C° 0 mm 3 m/s 753 mmHg 88%
    20:00 +29°C° 0 mm 3 m/s 754 mmHg 88%
    21:00 +29°C° 0 mm 3 m/s 754 mmHg 89%
    22:00 +29°C° 0 mm 3 m/s 755 mmHg 89%
    23:00 +28°C° 0.1 mm 2 m/s 754 mmHg 90%

    8 Juin, Lundi

    Heure Température Précipitation Vent Pression Humidité
    00:00 +28°C° 0.1 mm 2 m/s 754 mmHg 91%
    01:00 +28°C° 0.1 mm 2 m/s 754 mmHg 92%
    02:00 +28°C° 0 mm 2 m/s 754 mmHg 92%
    03:00 +28°C° 0 mm 2 m/s 753 mmHg 92%
    04:00 +28°C° 0 mm 2 m/s 753 mmHg 92%
    05:00 +28°C° 0 mm 2 m/s 753 mmHg 91%
    06:00 +29°C° 0 mm 2 m/s 754 mmHg 89%
    07:00 +29°C° 0 mm 2 m/s 754 mmHg 87%
    08:00 +30°C° 0 mm 2 m/s 754 mmHg 82%
    09:00 +32°C° 0 mm 2 m/s 754 mmHg 77%
    10:00 +34°C° 0 mm 2 m/s 754 mmHg 71%
    11:00 +34°C° 0.1 mm 3 m/s 754 mmHg 68%
    12:00 +35°C° 0.1 mm 3 m/s 754 mmHg 66%
    13:00 +35°C° 0.1 mm 3 m/s 753 mmHg 63%
    14:00 +35°C° 0.3 mm 3 m/s 753 mmHg 65%
    15:00 +35°C° 0.3 mm 3 m/s 752 mmHg 66%
    16:00 +34°C° 0.3 mm 3 m/s 752 mmHg 67%
    17:00 +33°C° 0.1 mm 3 m/s 752 mmHg 74%
    18:00 +30°C° 0.1 mm 3 m/s 753 mmHg 81%
    19:00 +29°C° 0.1 mm 2 m/s 753 mmHg 88%
    20:00 +29°C° 0.1 mm 2 m/s 753 mmHg 89%
    21:00 +29°C° 0.1 mm 2 m/s 754 mmHg 90%
    22:00 +28°C° 0.1 mm 2 m/s 755 mmHg 91%
    23:00 +28°C° 0.2 mm 2 m/s 754 mmHg 92%

    9 Juin, Mardi

    Heure Température Précipitation Vent Pression Humidité
    00:00 +28°C° 0.2 mm 2 m/s 754 mmHg 92%
    01:00 +28°C° 0.2 mm 2 m/s 754 mmHg 92%
    02:00 +28°C° 0 mm 2 m/s 754 mmHg 92%
    03:00 +28°C° 0 mm 2 m/s 753 mmHg 92%
    04:00 +28°C° 0 mm 2 m/s 753 mmHg 92%
    05:00 +28°C° 0 mm 2 m/s 754 mmHg 90%
    06:00 +29°C° 0 mm 2 m/s 754 mmHg 89%
    07:00 +29°C° 0 mm 1 m/s 754 mmHg 87%
    08:00 +31°C° 0 mm 1 m/s 755 mmHg 79%
    09:00 +32°C° 0 mm 2 m/s 755 mmHg 70%
    10:00 +35°C° 0 mm 2 m/s 755 mmHg 62%
    11:00 +36°C° 0 mm 2 m/s 754 mmHg 60%
    12:00 +36°C° 0 mm 2 m/s 754 mmHg 58%
    13:00 +36°C° 0 mm 3 m/s 753 mmHg 56%
    14:00 +36°C° 0.4 mm 3 m/s 753 mmHg 61%
    15:00 +35°C° 0.4 mm 3 m/s 753 mmHg 65%
    16:00 +34°C° 0.4 mm 4 m/s 752 mmHg 70%
    17:00 +33°C° 0.2 mm 3 m/s 752 mmHg 75%
    18:00 +31°C° 0.2 mm 3 m/s 752 mmHg 81%
    19:00 +29°C° 0.2 mm 2 m/s 753 mmHg 87%
    20:00 +29°C° 0.1 mm 2 m/s 753 mmHg 88%
    21:00 +29°C° 0.1 mm 2 m/s 754 mmHg 89%
    22:00 +29°C° 0.1 mm 2 m/s 755 mmHg 90%
    23:00 +29°C° 0.1 mm 2 m/s 754 mmHg 90%

    10 Juin, Mercredi

    Heure Température Précipitation Vent Pression Humidité
    00:00 +29°C° 0.1 mm 2 m/s 754 mmHg 91%
    01:00 +28°C° 0.1 mm 2 m/s 754 mmHg 91%
    02:00 +28°C° 0.1 mm 2 m/s 753 mmHg 92%
    03:00 +28°C° 0.1 mm 2 m/s 753 mmHg 92%
    04:00 +28°C° 0.1 mm 2 m/s 753 mmHg 93%
    05:00 +28°C° 0.3 mm 2 m/s 753 mmHg 92%
    06:00 +29°C° 0.3 mm 2 m/s 754 mmHg 91%
    07:00 +29°C° 0.3 mm 2 m/s 754 mmHg 91%
    08:00 +30°C° 0.4 mm 2 m/s 754 mmHg 83%
    09:00 +31°C° 0.4 mm 2 m/s 755 mmHg 76%
    10:00 +34°C° 0.4 mm 2 m/s 755 mmHg 68%
    11:00 +34°C° 0 mm 2 m/s 754 mmHg 64%
    12:00 +35°C° 0 mm 2 m/s 754 mmHg 61%
    13:00 +36°C° 0 mm 3 m/s 754 mmHg 57%
    14:00 +35°C° 0.1 mm 3 m/s 753 mmHg 60%
    15:00 +35°C° 0.1 mm 3 m/s 753 mmHg 64%
    16:00 +34°C° 0.1 mm 3 m/s 753 mmHg 67%
    17:00 +32°C° 1 mm 2 m/s 753 mmHg 74%
    18:00 +30°C° 1 mm 2 m/s 753 mmHg 81%
    19:00 +29°C° 1 mm 1 m/s 754 mmHg 87%
    20:00 +29°C° 0.2 mm 1 m/s 754 mmHg 88%
    21:00 +29°C° 0.2 mm 1 m/s 754 mmHg 88%
    22:00 +28°C° 0.2 mm 1 m/s 755 mmHg 89%
    23:00 +28°C° 0 mm 1 m/s 754 mmHg 89%
    Voir plus